Location: L�Ave Maria
(50.7161°N, 1.5911°E)
Time: 23:54:35
(UTC+00:00)

Cosmos 371 Rocket - Pass Details

Date: 10 July 2020
Orbit: 684 x 699 km, 74.0° (Epoch: 03 August)

Event Time Altitude Azimuth Distance (km) Brightness Sun altitude
Rises 22:02:07 0° 337° (NNW) 3,086 8.7 -12.8°
Reaches altitude 10° 22:04:29 10° 341° (NNW) 2,162 7.3 -12.9°
Maximum altitude 22:09:18 60° 62° (ENE) 795 3.6 -13.3°
Enters shadow 22:12:38 19° 138° (SE) 1,604 4.6 -13.5°
